sat.trackr.live / text

‹ back to catalog

STARLINK-33981

NORAD 63888 · 2025-094AA

PAYLOAD ACTIVE UNKNOWN

§ Identity

Operator
Country
US
Launch date
2025-05-10
Launch site
AFWTR
Launch vehicle
Mass (kg)
RCS (m²)

Purposes: comms

External: N2YO · Heavens-Above · Gunter

§ Orbital elements

Epoch: 2026-09-20T23:01:21.442944Z

Period
94.14 min
Inclination
69.9970°
Eccentricity
0.0003904
Mean motion
15.29584515 rev/d
Perigee alt
474.4 km
Apogee alt
479.7 km
Semi-major
6,855.2 km
B*
2.2869e-4
RAAN
99.6819°
Arg perigee
269.3348°
Mean anomaly
90.7380°
Rev number
7,651

§ Raw data

STARLINK-339811 63888U 25094AA  26263.95927596  .00006453  00000+0  22869-3 0  99912 63888  69.9970  99.6819 0003904 269.3348  90.7380 15.29584515 76519

JSON: /api/v1/satellites/63888 · /tle

For live sub-satellite position, see the globe view (requires WebGL).

§ Visibility from observer

Set your observer location to see the next 7 days of passes ≥ 10°. The values pass through the URL so the page stays shareable.

No JS? Fill the form by hand. The geolocation button needs JavaScript.